| time (UTC) | temp C | wind direction | speed KPH | gust KPH | rain 1hr cm | rain 24hr cm | rain mn cm | humidity % | barometer mb |
| 20260505021513 | 7 | 278 | 0.0 | 4.8 | 0.00 | 0.03 | 0.00 | 83 | 1011.5 |
| 20260505020013 | 7 | 336 | 0.0 | 6.4 | 0.00 | 0.03 | 0.00 | 82 | 1011.4 |
| 20260505014512 | 7 | 332 | 1.6 | 12.9 | 0.00 | 0.03 | 0.00 | 82 | 1011.4 |
| 20260505013011 | 7 | 330 | 1.6 | 8.0 | 0.00 | 0.03 | 0.00 | 82 | 1011.4 |
| 20260505011509 | 7 | 322 | 0.0 | 8.0 | 0.00 | 0.03 | 0.00 | 83 | 1011.5 |
| 20260505010007 | 7 | 341 | 1.6 | 8.0 | 0.00 | 0.03 | 0.00 | 84 | 1011.5 |
| 20260505004506 | 7 | 294 | 0.0 | 8.0 | 0.00 | 0.03 | 0.00 | 84 | 1011.7 |
| 20260505003006 | 7 | 322 | 0.0 | 6.4 | 0.00 | 0.03 | 0.00 | 84 | 1011.6 |
| 20260505001504 | 6 | 313 | 0.0 | 4.8 | 0.00 | 0.03 | 0.00 | 85 | 1011.6 |
| 20260505000001 | 7 | 340 | 0.0 | 0.0 | 0.00 | 0.03 | 0.00 | 84 | 1011.7 |
| 20260504234600 | 7 | 340 | 0.0 | 1.6 | 0.00 | 0.05 | 0.00 | 82 | 1011.7 |
| 20260504233111 | 8 | 340 | 0.0 | 3.2 | 0.00 | 0.05 | 0.00 | 80 | 1011.7 |
| 20260504231601 | 8 | 342 | 0.0 | 9.7 | 0.00 | 0.05 | 0.00 | 81 | 1011.7 |
| 20260504230057 | 8 | 337 | 3.2 | 6.4 | 0.00 | 0.05 | 0.00 | 81 | 1011.8 |
| 20260504224602 | 8 | 313 | 3.2 | 9.7 | 0.00 | 0.23 | 0.00 | 82 | 1011.7 |
| 20260504223112 | 7 | 294 | 0.0 | 4.8 | 0.00 | 0.23 | 0.00 | 81 | 1011.8 |
| 20260504221549 | 7 | 266 | 0.0 | 0.0 | 0.00 | 0.23 | 0.00 | 79 | 1011.6 |
| 20260504220048 | 7 | 267 | 0.0 | 1.6 | 0.00 | 0.23 | 0.00 | 79 | 1011.8 |
| 20260504214546 | 7 | 267 | 0.0 | 1.6 | 0.00 | 0.36 | 0.23 | 77 | 1011.8 |
| 20260504213054 | 7 | 267 | 0.0 | 1.6 | 0.00 | 0.36 | 0.23 | 77 | 1011.8 |
| 20260504211541 | 7 | 267 | 0.0 | 1.6 | 0.00 | 0.36 | 0.23 | 76 | 1011.8 |
| 20260504210041 | 8 | 267 | 0.0 | 1.6 | 0.00 | 0.36 | 0.23 | 75 | 1011.8 |
| 20260504204545 | 8 | 266 | 0.0 | 1.6 | 0.00 | 0.71 | 0.23 | 76 | 1011.7 |
| 20260504203044 | 8 | 267 | 0.0 | 0.0 | 0.00 | 0.71 | 0.23 | 76 | 1011.7 |
| 20260504201601 | 8 | 266 | 0.0 | 0.0 | 0.00 | 0.71 | 0.23 | 76 | 1011.7 |
| 20260504200038 | 8 | 267 | 0.0 | 0.0 | 0.00 | 0.71 | 0.23 | 73 | 1011.7 |
| 20260504194640 | 10 | 267 | 0.0 | 0.0 | 0.00 | 0.84 | 0.23 | 70 | 1011.5 |
| 20260504193048 | 10 | 267 | 0.0 | 0.0 | 0.00 | 0.84 | 0.23 | 68 | 1011.6 |
| 20260504191543 | 11 | 266 | 0.0 | 0.0 | 0.00 | 0.84 | 0.23 | 65 | 1011.4 |
| 20260504190147 | 11 | 267 | 0.0 | 1.6 | 0.00 | 0.84 | 0.23 | 62 | 1011.4 |
| 20260504184600 | 12 | 266 | 0.0 | 3.2 | 0.00 | 0.84 | 0.23 | 59 | 1011.4 |
| 20260504183155 | 12 | 233 | 0.0 | 6.4 | 0.00 | 0.84 | 0.23 | 58 | 1011.3 |
| 20260504181556 | 13 | 254 | 0.0 | 6.4 | 0.00 | 0.84 | 0.23 | 58 | 1011.2 |
| 20260504180154 | 13 | 251 | 0.0 | 8.0 | 0.00 | 0.84 | 0.23 | 56 | 1011.1 |
| 20260504174619 | 13 | 211 | 0.0 | 11.3 | 0.00 | 0.84 | 0.23 | 52 | 1011.0 |
| 20260504173042 | 13 | 287 | 1.6 | 9.7 | 0.00 | 0.84 | 0.23 | 47 | 1011.0 |
| 20260504171540 | 14 | 242 | 1.6 | 14.5 | 0.00 | 0.84 | 0.23 | 43 | 1011.1 |
| 20260504170141 | 14 | 305 | 4.8 | 16.1 | 0.00 | 0.84 | 0.23 | 40 | 1011.2 |
| 20260504150117 | 16 | 298 | 1.6 | 16.1 | 0.00 | 0.84 | 0.23 | 39 | 1011.1 |
| 20260504090118 | 12 | 249 | 4.8 | 16.1 | 0.00 | 0.84 | 0.20 | 86 | 1009.9 |
| 20260504081641 | 11 | 307 | 3.2 | 16.1 | 0.00 | 0.84 | 0.20 | 89 | 1009.6 |
| 20260504050154 | 12 | 226 | 6.4 | 14.5 | 0.00 | 0.84 | 0.20 | 90 | 1006.5 |
| 20260504044602 | 12 | 231 | 4.8 | 12.9 | 0.00 | 0.84 | 0.20 | 89 | 1006.3 |
| 20260504043042 | 12 | 231 | 6.4 | 12.9 | 0.00 | 0.84 | 0.20 | 89 | 1006.3 |
| 20260504041516 | 12 | 215 | 4.8 | 12.9 | 0.00 | 0.84 | 0.20 | 89 | 1006.3 |
| 20260504040117 | 12 | 230 | 4.8 | 12.9 | 0.00 | 0.84 | 0.20 | 89 | 1006.2 |
| 20260504034618 | 12 | 232 | 9.7 | 17.7 | 0.00 | 0.84 | 0.20 | 90 | 1006.2 |
| 20260504033016 | 12 | 229 | 3.2 | 16.1 | 0.00 | 0.84 | 0.20 | 90 | 1006.3 |
| 20260504031601 | 13 | 223 | 6.4 | 14.5 | 0.00 | 0.84 | 0.20 | 90 | 1006.3 |
| 20260504030051 | 13 | 226 | 4.8 | 11.3 | 0.00 | 0.84 | 0.20 | 90 | 1006.3 |
| 20260504024538 | 13 | 220 | 8.0 | 16.1 | 0.00 | 0.84 | 0.20 | 90 | 1006.4 |
| 20260504023138 | 13 | 265 | 8.0 | 20.9 | 0.00 | 0.84 | 0.20 | 89 | 1006.4 |